Location: Lake Arresoe
(56.0000°N, 12.5000°E)
Time: 21:18:48
(UTC+02:00)

Okean 3 - Pass Details

Date: 21 August 2020
Orbit: 576 x 601 km, 82.5° (Epoch: 01 October)

Event Time Altitude Azimuth Distance (km) Brightness Sun altitude
Rises 21:32:05 0° 349° (N) 2,865 7.8 -8.2°
Reaches altitude 10° 21:34:20 10° 354° (N) 1,959 6.8 -8.5°
Maximum altitude 21:38:37 58° 74° (ENE) 707 3.7 -9.0°
Drops below altitude 10° 21:42:52 10° 154° (SSE) 1,944 5.6 -9.5°
Enters shadow 21:42:55 10° 154° (SSE) 1,962 5.6 -9.5°
